Flag for U.S.A. Weather past 2 weeks in Chicago, Illinois, U.S.A.

Now
92 °F

Passing clouds.


Feels Like: 92 °F
Forecast: 72 / 85 °F
Wind: 20 mph from Southwest

Location: Chicago Midway Airport

Current Time: Aug 2, 2015 at 2:07:10 PM

Latest Report: Aug 2, 2015 at 12:53 PM


Visibility: 10 mi

Pressure: 29.75 "Hg

Humidity: 37%

Dew point: 62 °F

Location of ChicagoLocation

Historic Weather in Chicago — Graph

°F

Chicago temperature yesterday

Maximum temperature yesterday: 88 °F (at 1:53 PM)
Minimum temperature yesterday: 67 °F (at 5:53 AM)
Average temperature yesterday: 79 °F

Past Weeks' High & Low Weather Summary

 TemperatureHumidityPressure
High93 °F (Jul 28, 3:53 PM)85% (Jul 19, 4:53 AM)30.03 "Hg (Jul 19, 4:53 AM)
Low67 °F (Aug 1, 5:53 AM)24% (Jul 29, 3:53 PM)29.71 "Hg (Jul 20, 6:53 PM)
Average80 °F55%29.91 "Hg
* Reported Jul 18 12:53 PM — Aug 2 12:53 PM, Chicago, Weather by CustomWeather, © 2015

Note: Actual official high and low records may vary slightly from our data, if they occured in-between our weather recording intervals... More about our weather records

Advertising

Chicago weather history for previous 24 hours

 ConditionsComfort  
Time TempWeatherWind HumidityBarometerVisibility
12:53 PM
Sun, Aug 2
92 °FPassing clouds.20 mph37%29.75 "Hg10 mi
11:53 AM90 °FPassing clouds.24 mph39%29.77 "Hg10 mi
10:53 AM88 °FPassing clouds.18 mph42%29.78 "Hg10 mi
9:53 AM85 °FPassing clouds.17 mph48%29.80 "Hg10 mi
8:53 AM81 °FPassing clouds.14 mph58%29.82 "Hg10 mi
7:53 AM76 °FPassing clouds.10 mph72%29.82 "Hg10 mi
6:53 AM73 °FPassing clouds.9 mph79%29.82 "Hg10 mi
5:53 AM73 °FPassing clouds.7 mph79%29.83 "Hg10 mi
4:53 AM73 °FPassing clouds.8 mph79%29.83 "Hg10 mi
3:53 AM74 °FClear.10 mph74%29.83 "Hg10 mi
2:53 AM76 °FPassing clouds.10 mph69%29.84 "Hg10 mi
1:53 AM76 °FClear.12 mph67%29.85 "Hg10 mi
12:53 AM76 °FClear.9 mph67%29.85 "Hg10 mi
11:53 PM
Sat, Aug 1
77 °FClear.10 mph64%29.86 "Hg10 mi
10:53 PM78 °FPassing clouds.10 mph60%29.86 "Hg10 mi
9:53 PM79 °FPassing clouds.8 mph56%29.87 "Hg10 mi
8:53 PM81 °FPartly sunny.8 mph51%29.87 "Hg10 mi
7:53 PM83 °FBroken clouds.15 mph48%29.86 "Hg10 mi
6:53 PM85 °FBroken clouds.14 mph42%29.86 "Hg10 mi
5:53 PM85 °FBroken clouds.13 mph42%29.87 "Hg10 mi
4:53 PM87 °FPartly sunny.15 mph36%29.88 "Hg10 mi
3:53 PM88 °FPartly sunny.15 mph33%29.89 "Hg10 mi
2:53 PM88 °FScattered clouds.15 mph30%29.89 "Hg10 mi
Weather by CustomWeather, © 2015

See weather overviewHow to use our weather pages